SV2RIM-2 Weather Reports


time (UTC)temp
F
wind
direction
speed
knots
gust
knots
rain 1hr
in
rain 24hr
in
rain mn
in
humidity
%
barometer
mb
20260507105018 61 332 4.3 7.8 0.01 0.04 0.04 73 1018.4
20260507104018 60 301 5.2 10.4 0.02 0.04 0.04 73 1018.4
20260507103019 60 313 6.1 10.4 0.02 0.04 0.04 73 1018.4
20260507102019 60 303 6.1 8.7 0.02 0.04 0.04 73 1018.6
20260507101019 60 266 5.2 9.6 0.02 0.04 0.04 72 1018.7
20260507100019 60 272 3.5 7.8 0.02 0.03 0.03 72 1018.6
20260507095019 60 305 1.7 6.1 0.02 0.03 0.03 70 1018.6
20260507094018 60 318 0.9 5.2 0.01 0.02 0.02 70 1018.5
20260507093019 59 279 2.6 5.2 0.02 0.02 0.02 71 1018.4
20260507092018 59 309 6.1 11.3 0.02 0.02 0.02 71 1018.2
20260507091019 59 305 6.1 8.7 0.02 0.02 0.02 70 1018.1
20260507090019 60 314 6.1 10.4 0.01 0.01 0.01 69 1018.1
20260507085019 60 282 5.2 7.8 0.01 0.01 0.01 67 1018.1
20260507084019 60 285 4.3 9.6 0.01 0.01 0.01 67 1018.0
20260507083019 61 269 4.3 10.4 0.00 0.00 0.00 66 1017.8
20260507082019 64 263 2.6 6.1 0.00 0.00 0.00 63 1017.7
20260507081019 65 239 1.7 2.6 0.00 0.00 0.00 62 1017.5
20260507080019 68 200 1.7 3.5 0.00 0.00 0.00 57 1017.3
20260507075019 67 302 0.9 3.5 0.00 0.00 0.00 58 1017.1
20260507074019 67 338 3.5 7.0 0.00 0.00 0.00 58 1017.0
20260507073019 68 312 1.7 5.2 0.00 0.00 0.00 56 1016.9
20260507072018 67 351 2.6 5.2 0.00 0.00 0.00 57 1016.9
20260507071019 67 300 0.9 2.6 0.00 0.00 0.00 57 1016.9
20260507070019 65 277 1.7 2.6 0.00 0.00 0.00 60 1016.8
20260507065018 64 347 2.6 4.3 0.00 0.00 0.00 60 1016.7
20260507064019 64 332 0.9 3.5 0.00 0.00 0.00 59 1016.7
20260507063018 62 250 0.0 0.9 0.00 0.00 0.00 60 1016.7
20260507062019 62 321 1.7 2.6 0.00 0.00 0.00 61 1016.5
20260507061018 61 310 2.6 5.2 0.00 0.00 0.00 62 1016.5
20260507060018 61 305 2.6 4.3 0.00 0.00 0.00 61 1016.6
20260507055019 61 334 2.6 4.3 0.00 0.00 0.00 60 1016.7
20260507054018 61 320 2.6 4.3 0.00 0.00 0.00 60 1016.9
20260507053018 62 338 2.6 4.3 0.00 0.00 0.00 58 1016.6
20260507052019 62 323 2.6 5.2 0.00 0.00 0.00 58 1016.5
20260507051019 61 309 1.7 4.3 0.00 0.00 0.00 58 1016.4
20260507050019 59 302 2.6 4.3 0.00 0.00 0.00 59 1016.3
20260507045019 58 323 2.6 5.2 0.00 0.00 0.00 61 1016.2
20260507044019 57 298 3.5 6.1 0.00 0.00 0.00 62 1016.1
20260507043018 57 323 3.5 6.1 0.00 0.00 0.00 61 1016.0
20260507042019 57 332 4.3 7.8 0.00 0.00 0.00 62 1015.9
20260507041019 56 312 2.6 4.3 0.00 0.00 0.00 61 1015.8
20260507040019 56 320 4.3 7.8 0.00 0.00 0.00 62 1015.8
20260507035018 56 330 3.5 6.1 0.00 0.00 0.00 62 1015.7
20260507034019 56 331 4.3 7.8 0.00 0.00 0.00 62 1015.7
20260507033018 56 355 4.3 7.8 0.00 0.00 0.00 62 1015.7
20260507032019 55 354 4.3 7.8 0.00 0.00 0.00 62 1015.6
20260507031019 55 314 3.5 6.1 0.00 0.00 0.00 62 1015.6
20260507030019 55 345 4.3 7.8 0.00 0.00 0.00 62 1015.5
20260507025018 55 349 5.2 8.7 0.00 0.00 0.00 62 1015.6
20260507024018 55 4 5.2 8.7 0.00 0.00 0.00 62 1015.4
20260507023018 55 330 5.2 9.6 0.00 0.00 0.00 61 1015.3
20260507022019 55 345 4.3 7.8 0.00 0.00 0.00 61 1015.4
20260507021019 55 345 4.3 7.0 0.00 0.00 0.00 60 1015.3
20260507020019 56 331 4.3 6.1 0.00 0.00 0.00 60 1015.3
20260507015019 55 347 5.2 8.7 0.00 0.00 0.00 60 1015.2
20260507014019 55 341 5.2 7.8 0.00 0.00 0.00 59 1015.3
20260507013018 55 345 5.2 8.7 0.00 0.00 0.00 59 1015.2
20260507012019 55 357 4.3 7.0 0.00 0.00 0.00 59 1015.2
20260507011019 56 338 4.3 7.0 0.00 0.00 0.00 59 1015.1
20260507010018 55 330 4.3 7.0 0.00 0.00 0.00 59 1015.1
20260507005019 55 335 4.3 7.8 0.00 0.00 0.00 59 1015.1
20260507004018 55 338 4.3 7.0 0.00 0.00 0.00 58 1015.1
20260507003019 55 314 3.5 7.8 0.00 0.00 0.00 58 1015.0
20260507002019 55 322 4.3 7.0 0.00 0.00 0.00 59 1015.1
20260507001019 54 319 4.3 7.8 0.00 0.00 0.00 59 1015.2
20260507000018 54 312 3.5 7.0 0.00 0.00 0.00 58 1015.1
20260506235018 55 305 3.5 5.2 0.00 0.00 0.00 58 1015.1
20260506234018 55 320 4.3 6.1 0.00 0.00 0.00 58 1015.1
20260506233019 55 308 4.3 7.8 0.00 0.00 0.00 57 1015.1
20260506232019 55 335 3.5 6.1 0.00 0.00 0.00 57 1015.2
20260506231019 55 330 3.5 7.0 0.00 0.00 0.00 56 1015.2
20260506230018 55 333 4.3 7.0 0.00 0.00 0.00 56 1015.3
20260506225019 56 311 3.5 6.1 0.00 0.00 0.00 55 1015.4
20260506224018 56 325 4.3 9.6 0.00 0.00 0.00 55 1015.4
20260506223018 56 335 4.3 7.8 0.00 0.00 0.00 55 1015.4
20260506222018 56 345 5.2 7.8 0.00 0.00 0.00 55 1015.4
20260506221019 56 336 4.3 8.7 0.00 0.00 0.00 54 1015.2
20260506220018 57 319 4.3 6.1 0.00 0.00 0.00 54 1015.3
20260506215018 58 331 2.6 4.3 0.00 0.00 0.00 52 1015.3
20260506214018 58 332 3.5 6.1 0.00 0.00 0.00 53 1015.4
20260506213018 58 348 3.5 6.1 0.00 0.00 0.00 52 1015.3
20260506212019 59 304 2.6 5.2 0.00 0.00 0.00 52 1015.3
20260506211018 59 310 2.6 5.2 0.00 0.00 0.00 51 1015.3
20260506210018 60 329 2.6 6.1 0.00 0.00 0.00 50 1015.3
20260506205018 60 345 2.6 3.5 0.00 0.00 0.00 50 1015.2
20260506204019 60 332 2.6 5.2 0.00 0.00 0.00 49 1015.2
20260506203018 61 350 3.5 5.2 0.00 0.00 0.00 49 1015.1
20260506202019 61 340 3.5 5.2 0.00 0.00 0.00 48 1015.2
20260506201018 62 334 3.5 5.2 0.00 0.00 0.00 47 1015.3
20260506200019 61 354 4.3 7.0 0.00 0.00 0.00 48 1015.2
20260506195019 62 342 3.5 7.0 0.00 0.00 0.00 47 1015.1
20260506194019 62 323 2.6 4.3 0.00 0.00 0.00 46 1014.9
20260506193019 62 325 2.6 5.2 0.00 0.00 0.00 47 1014.9
20260506192019 63 336 2.6 6.1 0.00 0.00 0.00 45 1014.8
20260506191019 63 266 1.7 4.3 0.00 0.00 0.00 45 1014.6
20260506190019 63 334 2.6 5.2 0.00 0.00 0.00 44 1014.6
20260506185018 64 314 0.9 2.6 0.00 0.00 0.00 43 1014.5
20260506184019 65 257 0.9 1.7 0.00 0.00 0.00 42 1014.3
20260506183018 65 322 1.7 3.5 0.00 0.00 0.00 41 1014.3
20260506182018 66 238 0.0 0.9 0.00 0.00 0.00 39 1014.1
20260506181019 67 261 0.0 0.9 0.00 0.00 0.00 39 1014.1
20260506180019 67 232 0.9 1.7 0.00 0.00 0.00 38 1014.0
20260506175019 68 251 0.9 0.9 0.00 0.00 0.00 38 1013.9
20260506174018 68 257 0.9 1.7 0.00 0.00 0.00 37 1013.8
20260506173019 69 230 0.0 0.9 0.00 0.00 0.00 37 1013.8
20260506172018 70 262 0.9 0.9 0.00 0.00 0.00 36 1013.6
20260506171018 70 281 0.9 1.7 0.00 0.00 0.00 36 1013.5
20260506170019 71 243 0.9 1.7 0.00 0.00 0.00 35 1013.4
20260506165019 72 267 0.9 1.7 0.00 0.00 0.00 35 1013.4
20260506164018 73 271 0.9 2.6 0.00 0.00 0.00 34 1013.5
20260506163019 73 262 0.9 2.6 0.00 0.00 0.00 34 1013.4
20260506162019 74 242 0.9 2.6 0.00 0.00 0.00 34 1013.4
20260506161018 75 264 0.9 1.7 0.00 0.00 0.00 34 1013.4
20260506160019 78 284 0.9 3.5 0.00 0.00 0.00 33 1013.3
20260506155018 81 232 0.9 2.6 0.00 0.00 0.00 32 1013.4
20260506154019 84 300 1.7 4.3 0.00 0.00 0.00 31 1013.5
20260506153019 86 257 1.7 2.6 0.00 0.00 0.00 29 1013.6
20260506152018 84 216 0.9 2.6 0.00 0.00 0.00 30 1013.5
20260506151019 84 229 1.7 2.6 0.00 0.00 0.00 30 1013.5
20260506150019 82 173 1.7 2.6 0.00 0.00 0.00 30 1013.6
20260506145019 80 249 0.9 2.6 0.00 0.00 0.00 32 1013.5
20260506144018 79 206 1.7 2.6 0.00 0.00 0.00 33 1013.5
20260506143019 79 194 1.7 3.5 0.00 0.00 0.00 35 1013.4
20260506142019 81 200 2.6 5.2 0.00 0.00 0.00 36 1013.5
20260506141019 86 208 2.6 6.1 0.00 0.00 0.00 32 1013.5
20260506140019 83 200 1.7 4.3 0.00 0.00 0.00 35 1013.5
20260506135018 86 193 2.6 5.2 0.00 0.00 0.00 34 1013.5
20260506134019 84 190 1.7 5.2 0.00 0.00 0.00 36 1013.6
20260506133019 83 196 2.6 5.2 0.00 0.00 0.00 38 1013.7
20260506132019 86 188 1.7 3.5 0.00 0.00 0.00 35 1013.8
20260506131019 84 188 3.5 5.2 0.00 0.00 0.00 38 1013.9
20260506130018 84 200 1.7 5.2 0.00 0.00 0.00 37 1014.0
20260506125019 84 198 2.6 5.2 0.00 0.00 0.00 37 1014.1
20260506124019 83 193 1.7 4.3 0.00 0.00 0.00 38 1014.2
20260506123019 83 189 2.6 5.2 0.00 0.00 0.00 38 1014.2
20260506122019 83 331 1.7 4.3 0.00 0.00 0.00 38 1014.3
20260506121019 82 196 2.6 5.2 0.00 0.00 0.00 40 1014.5
20260506120019 84 198 1.7 5.2 0.00 0.00 0.00 38 1014.6
20260506115019 82 210 1.7 2.6 0.00 0.00 0.00 39 1014.7
20260506114019 83 198 1.7 5.2 0.00 0.00 0.00 38 1014.8
20260506113018 82 204 1.7 5.2 0.00 0.00 0.00 39 1014.9
20260506112019 82 188 1.7 5.2 0.00 0.00 0.00 38 1015.0
20260506111019 81 213 2.6 3.5 0.00 0.00 0.00 39 1015.1
20260506110019 80 194 1.7 3.5 0.00 0.00 0.00 39 1015.1